Wooster, OH

12:23 AM EST on December 15, 2019 (GMT -0500)
Wayne County

Weather History for KBJJ - October, 2019

Change the Weather History Date:

Thursday, October 3, 2019

  Actual Average Record
Temperature  
Mean Temperature 72 °F -  
Max Temperature 86 °F 65 °F 86 °F (2019)
Min Temperature 59 °F 41 °F 27 °F (2003)
Cooling Degree Days 8    
Growing Degree Days 22 (Base 50)    
Moisture  
Dew Point 66 °F    
Average Humidity 88    
Maximum Humidity 100    
Minimum Humidity 56    
Precipitation  
Precipitation 0.02 in - - ()
Sea Level Pressure  
Sea Level Pressure 29.96 in    
Wind  
Wind Speed 5 mph (WSW)    
Max Wind Speed 14 mph    
Max Gust Speed 21 mph    
Visibility 5 miles    
Events Fog    
Averages and records for this station are not official NWS values.
T = Trace of Precipitation, MM = Missing Value Source: NWS Daily Summary

Daily Weather History Graph

Daily Weather History Graph

Search for Another Location

Airport or City:

Astronomy

Oct. 03, 2019 Rise Set
Actual Time 7:25 AM EDT 7:06 PM EDT
Civil Twilight 6:58 AM EDT 7:33 PM EDT
Nautical Twilight 6:26 AM EDT 8:05 PM EDT
Astronomical Twilight 5:54 AM EDT 8:37 PM EDT
Moon 12:58 PM EDT (10/3) 10:42 PM EDT (10/3)
Length of Visible Light 12h 35m
Length of Day
11h 40m
Waxing Crescent, 29% of the Moon is Illuminated
Oct 3
Waxing Crescent
Oct 5
First Quarter
Oct 13
Full
Oct 21
Last Quarter
Oct 27
New

Hourly Weather History & Observations

Time (EDT) Temp. Heat Index Dew Point Humidity Pressure Visibility Wind Dir Wind Speed Gust Speed Precip Events Conditions
12:36 AM 66.9 °F - 66.9 °F 100% 29.95 in 1.8 mi Calm Calm - N/A   Overcast
12:56 AM 66.9 °F - 66.9 °F 100% 29.93 in 1.0 mi North 3.5 mph - N/A   Overcast
1:08 AM 66.9 °F - 66.9 °F 100% 29.96 in 0.8 mi North 4.6 mph - N/A   Overcast
1:56 AM 66.9 °F - 66.9 °F 100% 29.94 in 0.5 mi Calm Calm - N/A Fog Fog
2:56 AM 66.9 °F - 66.9 °F 100% 29.94 in 0.2 mi Calm Calm - N/A Fog Fog
3:56 AM 66.0 °F - 66.0 °F 100% 29.95 in 0.2 mi Calm Calm - N/A Fog Fog
4:56 AM 66.9 °F - 66.9 °F 100% 29.96 in 0.5 mi Calm Calm - 0.02 in Fog Fog
5:26 AM 66.9 °F - 66.9 °F 100% 29.97 in 1.2 mi SSW 5.8 mph - N/A   Overcast
5:36 AM 66.9 °F - 66.9 °F 100% 29.98 in 0.8 mi South 3.5 mph - N/A   Overcast
5:56 AM 66.9 °F - 66.9 °F 100% 29.96 in 0.2 mi South 4.6 mph - N/A Fog Fog
6:15 AM 66.9 °F - 66.9 °F 100% 29.97 in 1.2 mi South 3.5 mph - N/A   Overcast
6:24 AM 66.9 °F - 66.9 °F 100% 29.97 in 0.8 mi Calm Calm - N/A   Mist
6:56 AM 66.9 °F - 66.9 °F 100% 29.95 in 0.8 mi South 5.8 mph - N/A   Mist
7:56 AM 68.0 °F - 68.0 °F 100% 29.95 in 0.5 mi SW 5.8 mph - N/A Fog Fog
8:56 AM 68.0 °F - 68.0 °F 100% 29.94 in 0.5 mi SSW 4.6 mph - N/A Fog Fog
9:09 AM 69.1 °F - 69.1 °F 100% 29.96 in 1.2 mi SSW 6.9 mph - N/A   Overcast
9:24 AM 69.1 °F - 69.1 °F 100% 29.95 in 2.5 mi Variable 5.8 mph - N/A   Mostly Cloudy
9:31 AM 70.0 °F - 70.0 °F 100% 29.95 in 4.0 mi SSW 6.9 mph - N/A   Mostly Cloudy
9:39 AM 70.0 °F - 70.0 °F 100% 29.94 in 5.0 mi SW 9.2 mph - N/A   Scattered Clouds
9:56 AM 71.1 °F - 70.0 °F 96% 29.93 in 7.0 mi SW 9.2 mph - N/A   Clear
10:56 AM 78.1 °F - 71.1 °F 79% 29.93 in 10.0 mi SW 8.1 mph 16.1 mph N/A   Partly Cloudy
11:56 AM 82.0 °F 85.5 °F 69.1 °F 65% 29.92 in 10.0 mi West 13.8 mph 19.6 mph N/A   Clear
12:56 PM 84.9 °F 88.8 °F 69.1 °F 59% 29.91 in 10.0 mi West 11.5 mph - N/A   Clear
1:56 PM 84.9 °F 88.2 °F 68.0 °F 57% 29.91 in 10.0 mi WSW 12.7 mph 19.6 mph N/A   Scattered Clouds
2:56 PM 82.9 °F 85.0 °F 66.0 °F 56% 29.90 in 10.0 mi West 11.5 mph 20.7 mph N/A   Mostly Cloudy
3:56 PM 82.0 °F 84.5 °F 66.9 °F 60% 29.91 in 10.0 mi WNW 10.4 mph - N/A   Mostly Cloudy
4:56 PM 81.0 °F 83.8 °F 68.0 °F 65% 29.93 in 10.0 mi NW 10.4 mph 20.7 mph N/A   Scattered Clouds
5:56 PM 77.0 °F - 64.9 °F 66% 29.96 in 10.0 mi NW 13.8 mph - N/A   Clear
6:56 PM 73.9 °F - 64.0 °F 71% 29.99 in 10.0 mi NW 10.4 mph - N/A   Partly Cloudy
7:56 PM 70.0 °F - 64.9 °F 84% 30.02 in 10.0 mi NW 6.9 mph - N/A   Scattered Clouds
8:56 PM 66.0 °F - 59.0 °F 78% 30.05 in 10.0 mi NW 11.5 mph 20.7 mph N/A   Clear
9:56 PM 63.0 °F - 55.9 °F 78% 30.07 in 10.0 mi NW 8.1 mph - N/A   Clear
10:56 PM 61.0 °F - 55.9 °F 83% 30.09 in 10.0 mi NW 6.9 mph - N/A   Clear
11:56 PM 59.0 °F - 52.0 °F 78% 30.10 in 10.0 mi NW 8.1 mph - N/A   Clear